When you browse on this site, cookies collect data to enhance your experience and personalize the content and advertising you see.
Visit our Privacy Policy to learn more. By continuing to use the site, you agree to this use of cookies and data.
  • In Hungary
  • List of Countries
  • For 7 days
  • Water Temperature
  • Satellite Maps
  • Weather Map
  • News
  • Weather Widgets
  • user-avatar
    Login

    Hourly Weather Somoto

    Today, 21 January, Monday

    Time Temperature Precipitation Wind Pressure Humidity
    00:00 +19°C° 0 mm 3 mps 699 mmHg 88%
    01:00 +19°C° 0 mm 3 mps 699 mmHg 88%
    02:00 +19°C° 0 mm 3 mps 699 mmHg 89%
    03:00 +19°C° 0 mm 3 mps 699 mmHg 90%
    04:00 +19°C° 0 mm 4 mps 699 mmHg 89%
    05:00 +19°C° 0 mm 4 mps 699 mmHg 89%
    06:00 +19°C° 0 mm 3 mps 699 mmHg 88%
    07:00 +20°C° 0 mm 4 mps 699 mmHg 83%
    08:00 +22°C° 0 mm 5 mps 700 mmHg 77%
    09:00 +23°C° 0 mm 5 mps 700 mmHg 72%
    10:00 +24°C° 0 mm 6 mps 700 mmHg 67%
    11:00 +26°C° 0 mm 6 mps 700 mmHg 62%
    12:00 +27°C° 0 mm 6 mps 700 mmHg 57%
    13:00 +27°C° 0 mm 6 mps 700 mmHg 56%
    14:00 +27°C° 0 mm 6 mps 699 mmHg 55%
    15:00 +28°C° 0 mm 5 mps 699 mmHg 54%
    16:00 +26°C° 0 mm 5 mps 699 mmHg 61%
    17:00 +23°C° 0 mm 4 mps 699 mmHg 68%
    18:00 +22°C° 0 mm 4 mps 699 mmHg 75%
    19:00 +21°C° 0 mm 3 mps 699 mmHg 78%
    20:00 +20°C° 0 mm 3 mps 699 mmHg 81%
    21:00 +20°C° 0 mm 3 mps 700 mmHg 85%
    22:00 +19°C° 0 mm 3 mps 700 mmHg 85%
    23:00 +19°C° 0 mm 3 mps 699 mmHg 86%

    Tomorrow, 22 January, Tuesday

    Time Temperature Precipitation Wind Pressure Humidity
    00:00 +19°C° 0 mm 3 mps 699 mmHg 87%
    01:00 +19°C° 0 mm 3 mps 699 mmHg 87%
    02:00 +19°C° 0 mm 3 mps 699 mmHg 87%
    03:00 +19°C° 0 mm 3 mps 698 mmHg 87%
    04:00 +19°C° 0 mm 3 mps 698 mmHg 87%
    05:00 +19°C° 0 mm 3 mps 698 mmHg 87%
    06:00 +19°C° 0 mm 3 mps 698 mmHg 87%
    07:00 +20°C° 0 mm 3 mps 699 mmHg 82%
    08:00 +21°C° 0 mm 4 mps 700 mmHg 76%
    09:00 +23°C° 0 mm 4 mps 700 mmHg 70%
    10:00 +25°C° 0 mm 5 mps 700 mmHg 62%
    11:00 +27°C° 0 mm 5 mps 700 mmHg 55%
    12:00 +29°C° 0 mm 5 mps 700 mmHg 48%
    13:00 +29°C° 0 mm 5 mps 699 mmHg 48%
    14:00 +29°C° 0 mm 5 mps 698 mmHg 48%
    15:00 +29°C° 0 mm 5 mps 697 mmHg 48%
    16:00 +27°C° 0 mm 4 mps 697 mmHg 55%
    17:00 +25°C° 0 mm 3 mps 697 mmHg 62%
    18:00 +24°C° 0 mm 3 mps 697 mmHg 69%
    19:00 +23°C° 0 mm 2 mps 698 mmHg 75%
    20:00 +21°C° 0 mm 2 mps 698 mmHg 81%
    21:00 +20°C° 0 mm 2 mps 699 mmHg 87%
    22:00 +20°C° 0 mm 2 mps 699 mmHg 90%
    23:00 +19°C° 0 mm 2 mps 698 mmHg 93%

    Day after tomorrow, 23 January, Wednesday

    Time Temperature Precipitation Wind Pressure Humidity
    00:00 +19°C° 0 mm 2 mps 698 mmHg 95%
    01:00 +19°C° 0 mm 2 mps 698 mmHg 95%
    02:00 +19°C° 0 mm 2 mps 698 mmHg 95%
    03:00 +19°C° 0 mm 2 mps 697 mmHg 95%
    04:00 +18°C° 0 mm 2 mps 698 mmHg 95%
    05:00 +18°C° 0 mm 2 mps 698 mmHg 95%
    06:00 +18°C° 0 mm 2 mps 698 mmHg 95%
    07:00 +19°C° 0 mm 2 mps 698 mmHg 88%
    08:00 +20°C° 0 mm 3 mps 699 mmHg 82%
    09:00 +22°C° 0 mm 3 mps 700 mmHg 75%
    10:00 +25°C° 0 mm 3 mps 699 mmHg 67%
    11:00 +26°C° 0 mm 4 mps 699 mmHg 59%
    12:00 +28°C° 0 mm 4 mps 699 mmHg 50%
    13:00 +29°C° 0 mm 4 mps 698 mmHg 48%
    14:00 +29°C° 0 mm 4 mps 697 mmHg 47%
    15:00 +30°C° 0 mm 4 mps 696 mmHg 45%
    16:00 +28°C° 0 mm 4 mps 696 mmHg 53%
    17:00 +26°C° 0 mm 3 mps 696 mmHg 61%
    18:00 +24°C° 0 mm 2 mps 696 mmHg 70%
    19:00 +23°C° 0 mm 2 mps 697 mmHg 76%
    20:00 +21°C° 0 mm 2 mps 697 mmHg 83%
    21:00 +20°C° 0 mm 2 mps 698 mmHg 90%
    22:00 +19°C° 0 mm 2 mps 698 mmHg 91%
    23:00 +19°C° 0 mm 2 mps 698 mmHg 93%

    24 January, Thursday

    Time Temperature Precipitation Wind Pressure Humidity
    00:00 +18°C° 0 mm 2 mps 697 mmHg 95%
    01:00 +18°C° 0 mm 2 mps 697 mmHg 95%
    02:00 +17°C° 0 mm 2 mps 697 mmHg 96%
    03:00 +17°C° 0 mm 2 mps 696 mmHg 96%
    04:00 +17°C° 0 mm 2 mps 697 mmHg 96%
    05:00 +18°C° 0 mm 2 mps 697 mmHg 96%
    06:00 +18°C° 0 mm 2 mps 697 mmHg 96%
    07:00 +20°C° 0 mm 2 mps 698 mmHg 85%
    08:00 +23°C° 0 mm 2 mps 699 mmHg 74%
    09:00 +25°C° 0 mm 3 mps 700 mmHg 63%
    10:00 +27°C° 0 mm 3 mps 700 mmHg 55%
    11:00 +29°C° 0 mm 4 mps 700 mmHg 48%
    12:00 +32°C° 0 mm 4 mps 699 mmHg 40%
    13:00 +32°C° 0 mm 4 mps 699 mmHg 38%
    14:00 +32°C° 0 mm 4 mps 698 mmHg 37%
    15:00 +32°C° 0 mm 4 mps 697 mmHg 36%
    16:00 +29°C° 0 mm 3 mps 697 mmHg 43%
    17:00 +27°C° 0 mm 3 mps 697 mmHg 49%
    18:00 +25°C° 0 mm 2 mps 697 mmHg 56%
    19:00 +24°C° 0 mm 2 mps 698 mmHg 63%
    20:00 +23°C° 0 mm 2 mps 698 mmHg 71%
    21:00 +20°C° 0 mm 2 mps 699 mmHg 79%
    22:00 +20°C° 0 mm 2 mps 699 mmHg 83%
    23:00 +20°C° 0 mm 2 mps 698 mmHg 86%

    25 January, Friday

    Time Temperature Precipitation Wind Pressure Humidity
    00:00 +20°C° 0 mm 2 mps 698 mmHg 90%
    01:00 +20°C° 0 mm 2 mps 698 mmHg 91%
    02:00 +19°C° 0 mm 2 mps 698 mmHg 93%
    03:00 +19°C° 0 mm 2 mps 697 mmHg 95%
    04:00 +19°C° 0 mm 2 mps 697 mmHg 94%
    05:00 +19°C° 0 mm 2 mps 698 mmHg 93%
    06:00 +19°C° 0 mm 2 mps 698 mmHg 92%
    07:00 +21°C° 0 mm 3 mps 699 mmHg 83%
    08:00 +22°C° 0 mm 3 mps 699 mmHg 75%
    09:00 +25°C° 0 mm 4 mps 700 mmHg 67%
    10:00 +27°C° 0 mm 4 mps 700 mmHg 60%
    11:00 +28°C° 0 mm 4 mps 699 mmHg 54%
    12:00 +30°C° 0 mm 5 mps 699 mmHg 47%
    13:00 +30°C° 0 mm 5 mps 698 mmHg 46%
    14:00 +30°C° 0 mm 4 mps 698 mmHg 46%
    15:00 +30°C° 0 mm 4 mps 697 mmHg 45%
    16:00 +29°C° 0 mm 3 mps 697 mmHg 52%
    17:00 +27°C° 0 mm 3 mps 697 mmHg 60%
    18:00 +25°C° 0 mm 2 mps 698 mmHg 67%
    19:00 +24°C° 0.1 mm 2 mps 698 mmHg 72%
    20:00 +23°C° 0.1 mm 2 mps 699 mmHg 77%
    21:00 +23°C° 0.1 mm 2 mps 699 mmHg 83%
    22:00 +21°C° 0 mm 2 mps 699 mmHg 86%
    23:00 +20°C° 0 mm 2 mps 699 mmHg 89%

    26 January, Saturday

    Time Temperature Precipitation Wind Pressure Humidity
    00:00 +20°C° 0 mm 2 mps 699 mmHg 92%
    01:00 +19°C° 0 mm 2 mps 698 mmHg 93%
    02:00 +19°C° 0 mm 2 mps 698 mmHg 93%
    03:00 +19°C° 0 mm 2 mps 697 mmHg 94%
    04:00 +19°C° 0 mm 2 mps 698 mmHg 94%
    05:00 +19°C° 0 mm 2 mps 698 mmHg 94%
    06:00 +19°C° 0 mm 2 mps 698 mmHg 95%
    07:00 +20°C° 0 mm 2 mps 699 mmHg 86%
    08:00 +22°C° 0 mm 3 mps 699 mmHg 77%
    09:00 +25°C° 0 mm 3 mps 700 mmHg 68%
    10:00 +26°C° 0 mm 3 mps 699 mmHg 63%
    11:00 +27°C° 0 mm 4 mps 699 mmHg 58%
    12:00 +29°C° 0 mm 4 mps 699 mmHg 53%
    13:00 +29°C° 0 mm 4 mps 698 mmHg 52%
    14:00 +29°C° 0 mm 3 mps 697 mmHg 51%
    15:00 +29°C° 0 mm 3 mps 696 mmHg 50%
    16:00 +27°C° 0 mm 3 mps 697 mmHg 57%
    17:00 +26°C° 0 mm 2 mps 697 mmHg 64%
    18:00 +24°C° 0 mm 2 mps 697 mmHg 71%
    19:00 +23°C° 0 mm 2 mps 697 mmHg 75%
    20:00 +23°C° 0 mm 2 mps 698 mmHg 79%
    21:00 +21°C° 0 mm 2 mps 698 mmHg 83%
    22:00 +20°C° 0 mm 2 mps 698 mmHg 86%
    23:00 +20°C° 0 mm 2 mps 698 mmHg 88%
    Show more